CZ-3C DEB (VEB), 38095

Orbit data source: Space-Track

CZ-3C DEB (VEB), 38095 is space debris in HEO originally from a launch on Fri, 24 Feb 2012 UTC launched from the Xichang Space Center, China (XSC). Debris objects in space refer to the collection of defunct objects orbiting the Earth. Examples of debris include non-operational satellites, rocket bodies, and fragments generated from explosions, collisions, or faulty payload assembly.

Loading next visibility...
Identifier
38095, 2012-008C
Orbit
HEO
Country
Flag of CNCN / PRC
Related business
Manufacturer
CALT
Mission
Spacecraft
Bus & Motor
Unknown
Mass
Unknown
Launch date (UTC)
2012-02-24 (14 years ago)
Launch vehicle
Unknown
Launch site
Xichang Space Center, China (XSC)
Object type
Payload
Rocket body
Debris
Shape & HBR
Cyl, 1.5 m
Radar Cross Section
5.890 m², Large (>1 m²)

Expand to show TLE details & history
Last TLE update: 23 hours ago

TLE from 23 hours ago
0 CZ-3C DEB (VEB)
1 38095U 12008C   26235.23402730  .00022507  00000-0  23867-2 0  9999
2 38095  21.0343 324.5489 6502591 150.0840 272.7459  3.34064175142153
Epoch: 2026-08-23T05:36Z
TLE epoch observation values (Epoch: 2026-08-23T05:36:59.958Z)
Latitude
0.00002°
Longitude
-91.22083°
Altitude
18,622.603 km
Speed
3.286 km/s
True Right ascension
21h 38m 14s
True Declination
0° 00' 00"
Sunlit
Object was in full shadow at epoch
Visualization orbit readout
Latitude
Unknown
Longitude
Unknown
Altitude
Unknown
Speed
Unknown
Apparent Right ascension
Unknown
Apparent Declination
Unknown
Sunlit
N/A
Visualization observer readout
Local Sidereal Time
20:04:19
Azimuth
Unknown
Elevation
Unknown
Doppler factor
Unknown
Orbital elements
Apogee altitude
24,822.693 km
Perigee altitude
234.283 km
Semi-major axis
18,906.625 km
Eccentricity
0.65026
Inclination
21.0343°
RAAN
324.5489°
Arg. of periapsis
150.084°
True anomaly
209.97725°
Mean anomaly
272.7459°
Eccentric anomaly
240.36295°
Mean motion
0.83488 °/min
Orbital period
431.2 mins
BSTAR
0.0023867
Loading maneuver chart data...
Computing Atmospheric mass density...
Loading historical data...
Loading historical data...
Loading historical data...
Loading historical data...
Loading historical data...
Loading historical data...
Loading historical data...

Documentation

Showing up to 5 results
|